CW9181 Weather Reports


Display with metric or nautical units.
time (UTC)temp
F
wind
direction
speed
MPH
gust
MPH
rain 1hr
in
rain 24hr
in
rain mn
in
humidity
%
barometer
mb
20260901092016 59 119 4.0 11.0 0.00 0.00 0.00 78 1013.1
20260901091033 59 103 6.0 12.0 0.00 0.00 0.00 78 1013.1
20260901090013 59 119 6.0 11.0 0.00 0.00 0.00 79 1013.3
20260901085016 59 95 8.0 12.0 0.00 0.00 0.00 79 1013.2
20260901084015 59 127 6.0 11.0 0.00 0.00 0.00 79 1013.2
20260901083019 59 155 6.0 10.0 0.00 0.00 0.00 79 1013.3
20260901082021 59 156 7.0 12.0 0.00 0.00 0.00 79 1013.2
20260901081027 59 143 6.0 11.0 0.00 0.00 0.00 79 1013.2
20260901080022 59 133 7.0 13.0 0.00 0.00 0.00 79 1013.1
20260901075022 59 113 7.0 11.0 0.00 0.00 0.00 79 1013.0
20260901074024 59 99 5.0 12.0 0.00 0.00 0.00 79 1013.1
20260901073019 60 139 8.0 14.0 0.00 0.00 0.00 79 1013.1
20260901072022 60 103 6.0 14.0 0.00 0.00 0.00 78 1013.0
20260901071023 60 124 5.0 11.0 0.00 0.00 0.00 78 1013.0
20260901070046 60 130 6.0 14.0 0.00 0.00 0.00 78 1013.0
20260901065034 60 134 6.0 11.0 0.00 0.00 0.00 78 1013.0
20260901064014 60 136 7.0 13.0 0.00 0.00 0.00 78 1013.0
20260901063017 60 141 5.0 11.0 0.00 0.00 0.00 78 1013.0
20260901062012 60 162 5.0 14.0 0.00 0.00 0.00 77 1013.0
20260901061011 60 146 6.0 11.0 0.00 0.00 0.00 77 1012.9
20260901060012 61 195 5.0 11.0 0.00 0.00 0.00 77 1012.8
20260901055048 61 145 6.0 11.0 0.00 0.00 0.00 76 1012.6
20260901054028 61 132 5.0 12.0 0.00 0.00 0.00 76 1012.7
20260901053052 61 125 5.0 9.0 0.00 0.00 0.00 75 1012.6
20260901052026 62 159 5.0 11.0 0.00 0.00 0.00 75 1012.7
20260901051024 62 158 4.0 10.0 0.00 0.00 0.00 75 1012.7
20260901050028 62 199 4.0 10.0 0.00 0.00 0.00 74 1012.7
20260901045024 63 154 5.0 12.0 0.00 0.00 0.00 74 1012.6
20260901044049 63 105 6.0 11.0 0.00 0.00 0.00 74 1012.5
20260901043028 63 151 7.0 11.0 0.00 0.00 0.00 73 1012.4
20260901042020 63 169 5.0 11.0 0.00 0.00 0.00 72 1012.4
20260901041022 64 186 5.0 12.0 0.00 0.00 0.00 72 1012.3
20260901040022 64 200 5.0 14.0 0.00 0.00 0.00 71 1012.3
20260901035012 64 182 5.0 10.0 0.00 0.00 0.00 71 1012.0
20260901034011 65 165 4.0 10.0 0.00 0.00 0.00 70 1011.8
20260901033016 65 218 4.0 10.0 0.00 0.00 0.00 69 1011.6
20260901032013 65 171 3.0 10.0 0.00 0.00 0.00 69 1011.5
20260901031012 66 239 8.0 12.0 0.00 0.00 0.00 68 1011.3
20260901030013 66 201 3.0 14.0 0.00 0.00 0.00 67 1011.1
20260901025011 67 159 5.0 13.0 0.00 0.00 0.00 66 1011.0
20260901024016 68 137 6.0 11.0 0.00 0.00 0.00 64 1011.1
20260901023018 69 191 5.0 12.0 0.00 0.00 0.00 63 1010.9
20260901022021 69 195 3.0 13.0 0.00 0.00 0.00 60 1010.9
20260901021038 70 216 5.0 11.0 0.00 0.00 0.00 59 1010.8
20260901020021 71 301 5.0 12.0 0.00 0.00 0.00 57 1010.7
20260901015023 72 191 5.0 15.0 0.00 0.00 0.00 55 1010.6
20260901014040 73 189 4.0 11.0 0.00 0.00 0.00 54 1010.3
20260901013017 74 166 4.0 11.0 0.00 0.00 0.00 53 1010.4
20260901012012 75 231 5.0 15.0 0.00 0.00 0.00 50 1010.4
20260901011012 76 203 6.0 12.0 0.00 0.00 0.00 49 1010.4
20260901010204 76 212 7.0 13.0 0.00 0.00 0.00 48 1010.5
20260901005026 76 197 6.0 14.0 0.00 0.00 0.00 48 1010.5
20260901004028 77 213 5.0 15.0 0.00 0.00 0.00 47 1010.7
20260901003010 78 181 3.0 12.0 0.00 0.00 0.00 47 1010.8
20260901002031 78 184 4.0 10.0 0.00 0.00 0.00 47 1010.5
20260901001028 78 210 4.0 10.0 0.00 0.00 0.00 48 1010.7
20260901000010 78 179 5.0 12.0 0.00 0.00 0.00 47 1010.8
20260831235012 78 252 7.0 12.0 0.00 0.00 0.00 47 1010.6
20260831234029 79 227 4.0 12.0 0.00 0.00 0.00 47 1010.7
20260831233030 78 298 5.0 12.0 0.00 0.00 0.00 48 1010.9
20260831232010 78 250 6.0 10.0 0.00 0.00 0.00 48 1011.0
20260831231025 79 178 4.0 11.0 0.00 0.00 0.00 48 1011.0
20260831230023 79 172 2.0 13.0 0.00 0.00 0.00 47 1011.1
20260831225024 78 245 4.0 10.0 0.00 0.00 0.00 48 1011.2
20260831224019 78 195 5.0 13.0 0.00 0.00 0.00 49 1011.3
20260831223020 77 245 5.0 11.0 0.00 0.00 0.00 48 1011.4
20260831222023 77 159 5.0 10.0 0.00 0.00 0.00 49 1011.6
20260831221020 77 231 6.0 10.0 0.00 0.00 0.00 48 1011.6
20260831220020 77 176 5.0 12.0 0.00 0.00 0.00 48 1011.9
20260831215022 77 241 5.0 12.0 0.00 0.00 0.00 48 1011.8
20260831214033 77 265 3.0 10.0 0.00 0.00 0.00 49 1011.8
20260831213015 76 260 5.0 10.0 0.00 0.00 0.00 49 1011.8
20260831212015 76 275 6.0 9.0 0.00 0.00 0.00 50 1012.0
20260831211010 76 203 4.0 10.0 0.00 0.00 0.00 51 1012.1
20260831210012 75 194 5.0 10.0 0.00 0.00 0.00 51 1012.1
20260831205011 75 255 5.0 10.0 0.00 0.00 0.00 51 1012.2
20260831204025 75 169 3.0 9.0 0.00 0.00 0.00 52 1012.3
20260831203027 75 234 2.0 8.0 0.00 0.00 0.00 52 1012.3
20260831202027 74 203 4.0 12.0 0.00 0.00 0.00 53 1012.5
20260831201026 74 260 7.0 12.0 0.00 0.00 0.00 53 1012.3
20260831200028 74 205 3.0 11.0 0.00 0.00 0.00 53 1012.6
20260831195048 73 218 4.0 10.0 0.00 0.00 0.00 54 1012.8
20260831194024 73 235 6.0 11.0 0.00 0.00 0.00 56 1012.9
20260831193022 73 192 7.0 14.0 0.00 0.00 0.00 56 1013.0
20260831192023 73 292 6.0 17.0 0.00 0.00 0.00 55 1012.9
20260831191039 72 205 4.0 10.0 0.00 0.00 0.00 58 1013.0
20260831190015 72 286 3.0 11.0 0.00 0.00 0.00 57 1012.9
20260831185017 72 270 4.0 11.0 0.00 0.00 0.00 56 1012.8
20260831184017 72 174 6.0 11.0 0.00 0.00 0.00 56 1012.8
20260831183018 72 250 3.0 11.0 0.00 0.00 0.00 57 1012.8
20260831182019 72 191 5.0 12.0 0.00 0.00 0.00 58 1013.1
20260831181016 71 168 6.0 13.0 0.00 0.00 0.00 58 1013.0
20260831180018 71 225 5.0 12.0 0.00 0.00 0.00 59 1012.9
20260831175022 70 207 6.0 13.0 0.00 0.00 0.00 60 1012.9
20260831174020 70 251 4.0 11.0 0.00 0.00 0.00 61 1012.8
20260831173016 70 181 5.0 10.0 0.00 0.00 0.00 61 1012.8
20260831172016 69 109 5.0 9.0 0.00 0.00 0.00 61 1012.7
20260831171021 69 189 4.0 10.0 0.00 0.00 0.00 62 1012.7
20260831170019 69 172 4.0 8.0 0.00 0.00 0.00 62 1012.6
20260831165041 68 211 2.0 8.0 0.00 0.00 0.00 64 1012.6
20260831164021 67 189 3.0 10.0 0.00 0.00 0.00 65 1012.7
20260831163038 67 170 7.0 10.0 0.00 0.00 0.00 65 1012.7
20260831162021 66 154 5.0 9.0 0.00 0.00 0.00 66 1012.6
20260831161017 66 132 3.0 8.0 0.00 0.00 0.00 67 1012.6
20260831160017 65 119 5.0 7.0 0.00 0.00 0.00 68 1012.8
20260831155038 64 97 4.0 8.0 0.00 0.00 0.00 70 1012.7
20260831154014 64 195 4.0 10.0 0.00 0.00 0.00 71 1012.7
20260831153018 63 187 4.0 8.0 0.00 0.00 0.00 73 1012.7
20260831152024 62 122 5.0 9.0 0.00 0.00 0.00 75 1012.6
20260831151023 61 165 5.0 10.0 0.00 0.00 0.00 78 1012.6
20260831145014 59 147 1.0 9.0 0.00 0.00 0.00 81 1012.4
20260831144035 59 135 3.0 7.0 0.00 0.00 0.00 82 1012.3
20260831143016 58 196 3.0 7.0 0.00 0.00 0.00 82 1012.2
20260831142019 58 154 4.0 8.0 0.00 0.00 0.00 83 1012.1
20260831141019 58 147 3.0 7.0 0.00 0.00 0.00 83 1012.0
20260831140039 58 178 2.0 6.0 0.00 0.00 0.00 82 1011.6
20260831135018 58 156 2.0 10.0 0.00 0.00 0.00 82 1011.7
20260831134014 58 166 5.0 8.0 0.00 0.00 0.00 82 1011.5
20260831133016 58 151 4.0 10.0 0.00 0.00 0.00 81 1011.4
20260831132020 58 193 2.0 7.0 0.00 0.00 0.00 81 1011.3
20260831131017 58 172 3.0 7.0 0.00 0.00 0.00 81 1011.3
20260831130011 59 197 3.0 7.0 0.00 0.00 0.00 80 1011.0
20260831125018 59 158 3.0 6.0 0.00 0.00 0.00 79 1010.9
20260831124018 59 165 3.0 7.0 0.00 0.00 0.00 78 1010.9
20260831123017 60 170 3.0 8.0 0.00 0.00 0.00 77 1010.9
20260831122013 60 156 4.0 7.0 0.00 0.00 0.00 76 1010.8
20260831121017 60 162 5.0 10.0 0.00 0.00 0.00 75 1010.7
20260831120010 60 170 4.0 9.0 0.00 0.00 0.00 75 1010.7
20260831115012 60 170 4.0 7.0 0.00 0.00 0.00 74 1010.7
20260831114014 61 176 3.0 7.0 0.00 0.00 0.00 73 1010.7
20260831113010 61 158 3.0 5.0 0.00 0.00 0.00 72 1010.7
20260831112030 61 142 3.0 7.0 0.00 0.00 0.00 72 1010.7
20260831111013 61 143 3.0 5.0 0.00 0.00 0.00 71 1010.6
20260831110034 62 147 3.0 5.0 0.00 0.00 0.00 70 1010.7
20260831105038 62 111 2.0 7.0 0.00 0.00 0.00 70 1010.8
20260831104020 62 168 3.0 6.0 0.00 0.00 0.00 69 1010.7
20260831103022 62 155 3.0 6.0 0.00 0.00 0.00 69 1010.6
20260831102022 63 172 2.0 5.0 0.00 0.00 0.00 69 1010.5
20260831101027 63 173 3.0 6.0 0.00 0.00 0.00 69 1010.5
20260831100024 63 159 3.0 5.0 0.00 0.00 0.00 69 1010.4
20260831095023 63 161 3.0 7.0 0.00 0.00 0.00 68 1010.4
20260831094041 63 172 3.0 6.0 0.00 0.00 0.00 69 1010.3
20260831093018 64 174 2.0 6.0 0.00 0.00 0.00 67 1010.4